Regional Weather Roundup
Issued by NWS

Home | Current Version | Previous Version | Graphics & Text | Print | Product List | Glossary On
Versions: 1 2 3 4 5 6 7 8 9 10 11 12 13 14 15 16 17 18 19 20 21 22 23 24 25 26 27 28 29 30 31 32 33 34 35 36 37 38 39 40 41 42 43 44 45 46 47 48 49 50
048
ASUS43 KMPX 262101
RWRMN
WEATHER ROUNDUP FOR MINNESOTA
NATIONAL WEATHER SERVICE TWIN CITIES/CHANHASSEN MN
400 PM CDT WED APR 26 2017


NOTE: "FAIR" INDICATES FEW OR NO CLOUDS BELOW 12,000 FEET WITH NO
SIGNIFICANT WEATHER AND/OR OBSTRUCTIONS TO VISIBILITY. N/A MEANS
CURRENT SKY AND/OR WEATHER CONDITIONS ARE NOT AVAILABLE.

MNZ060>063-068>070-262200-
   Twin Cities Metro

CITY           SKY/WX    TMP DP  RH WIND       PRES   REMARKS
TWIN CITIES    CLOUDY    40  32  73 NW14      29.55S
ST PAUL        CLOUDY    41  35  79 N14       29.55S
CRYSTAL        CLOUDY    39  31  72 NW12      29.55R
BLAINE         CLOUDY    39  39 100 N9        29.55R
LAKEVILLE      CLOUDY    37  36  93 NW14      29.54S
EDEN PRAIRIE   CLOUDY    41  33  73 NW12      29.54S
SOUTH ST PAUL  CLOUDY    40  35  81 N10       29.54F
LAKE ELMO      CLOUDY    39  36  87 NW9       29.54S
$$
MNZ001>005-007-008-013>017-022>024-027-028-262200-
   Northwest Minnesota

CITY           SKY/WX    TMP DP  RH WIND       PRES   REMARKS
BEMIDJI        LGT SNOW  28  25  89 NE8       29.67R WCI  19
HALLOCK        CLOUDY    36  25  64 NE14G22   29.79F
ROSEAU         CLOUDY    32  25  74 NE20      29.77F WCI  20
WARROAD        FLURRIES  30  25  80 NE18G25   29.77F WCI  18
THIEF RVR FALL FLURRIES  29  23  78 NE21G26   29.75R WCI  16
CROOKSTON      FLURRIES  30  27  86 N10       29.77S WCI  21
FOSSTON        LGT SNOW  27  25  93 N14       29.71S WCI  15
DETROIT LAKES  LGT SNOW  30  28  93 N7        29.67F WCI  23
MOORHEAD       RAIN      28  27  93 N7        29.73F WCI  21
PARK RAPIDS    MIX PCPN  30  23  75 N12       29.64S WCI  20
MAHNOMEN       CLOUDY    28  25  90 N6        29.70S FOG     WCI  21
$$
MNZ006-009>011-018-025>026-262200-
   North Central Minnesota

CITY           SKY/WX    TMP DP  RH WIND       PRES   REMARKS
BAUDETTE       LGT SNOW  29  23  78 NE18G25   29.74R WCI  16
FLAG ISLAND    CLOUDY    30  21  69 NE23G31   29.78S WCI  17
INTL FALLS     SNOW      27  22  81 NE10G21   29.71R VSB 1/2 WCI  17
WASKISH        CLOUDY    28  25  86 NE14G21   29.71R FOG     WCI  17
BIG FORK       LGT SNOW  28  23  80 NE9       29.66S WCI  20
LONGVILLE      CLOUDY    28  25  86 N5        29.64S FOG     WCI  23
GRAND RAPIDS   LGT SNOW  29  26  89 N10       29.64S FOG     WCI  20
CRANE LAKE     LGT SNOW  25  21  86 N7G17     29.70R WCI  17
ORR            LGT RAIN  27  21  80 CALM      29.64R
COOK           LGT SNOW  28  23  80 N8        29.65R WCI  20
WALKER         CLOUDY    27  24  87 N9        29.65F FOG     WCI  18
$$
MNZ012-019>021-037-262200-
   Northeast Minnesota

CITY           SKY/WX    TMP DP  RH WIND       PRES   REMARKS
DULUTH         FOG       34  31  88 N14       29.54F VSB 3/4 WCI  25
ELY            LGT SNOW  27  21  80 NE13      29.62S WCI  16
HIBBING        CLOUDY    28  24  85 N13       29.61S WCI  17
EVELETH        MOSUNNY   32  28  83 N8        29.60F WCI  25
DULUTH HARBOR  LGT RAIN  36  34  93 NE10      29.58F
TWO HARBORS    CLOUDY    37  32  81 N8        29.54F
SILVER BAY     LGT SNOW  34  30  86 N7        29.55F WCI  28
GRAND MARAIS     N/A     31  27  85 N9G29     29.57R WCI  23
G MARAIS ARPRT LGT SNOW  23  19  86 N5        29.53S WCI  17
$$
MNZ029>031-032-039>041-046>048-054>057-064-262200-
   West Central Minnesota

CITY           SKY/WX    TMP DP  RH WIND       PRES   REMARKS
FERGUS FALLS   CLOUDY    28  28 100 N10G17    29.68F FOG     WCI  19
WHEATON        CLOUDY    30  27  86 NW15G23   29.72S WCI  19
MORRIS         CLOUDY    34  28  80 NW20      29.64F WCI  22
ALEXANDRIA     CLOUDY    32  28  85 N10       29.64F WCI  24
ELBOW LAKE     CLOUDY    32  27  82 NE10      29.66F WCI  24
WADENA         LGT SNOW  28  27  93 N5        29.65R WCI  23
GLENWOOD       CLOUDY    32  28  86 N9        29.63F WCI  24
APPLETON       CLOUDY    34  28  80 NW16      29.65F WCI  23
BENSON         CLOUDY    37  27  65 N12G17    29.65F
ORTONVILLE     CLOUDY    30  27  86 NW16G24   29.68F WCI  19
MADISON        CLOUDY    34  34 100 NW17      29.67F WCI  23
WILLMAR        MIX PCPN  36  34  93 N13       29.62F
$$
MNZ033>034-036-042>043-049>051-058-059-262200-
   Central Minnesota

CITY           SKY/WX    TMP DP  RH WIND       PRES   REMARKS
ST CLOUD       CLOUDY    35  31  85 N13       29.59F WCI  26
SAUK CENTRE    MIX PCPN  31  29  93 N9        29.62F WCI  23
PAYNESVILLE    RAIN      32  32 100 N12G17    29.61F WCI  23
AITKIN         MIX PCPN  34  28  80 N8        29.60R WCI  27
PINE RIVER     CLOUDY    28  25  86 N6        29.67F WCI  22
BRAINERD       CLOUDY    31  27  85 N10       29.63S WCI  22
STAPLES        CLOUDY    28  27  93 N7        29.64R WCI  21
LONG PRAIRIE   LGT SNOW  30  28  93 CALM      29.63S
LITTLE FALLS   CLOUDY    32  28  86 N6        29.62S WCI  26
LITCHFIELD     CLOUDY    36  34  93 N10G17    29.60F
BUFFALO        CLOUDY    36  33  87 NW14      29.59S
MAPLE LAKE     CLOUDY    37  33  85 N13G18    29.59S
HUTCHINSON     CLOUDY    37  33  86 NW15      29.60S
$$
MNZ037-044-045-052-053-262200-
   East Central Minnesota

CITY           SKY/WX    TMP DP  RH WIND       PRES   REMARKS
PRINCETON      LGT RAIN  37  34  87 N9G17     29.58S
MORA           LGT RAIN  36  32  87 N6        29.59S
CAMBRIDGE      LGT RAIN  37  34  87 N7G17     29.55S
RUSH CITY      CLOUDY    37  33  86 N10G16    29.57R
MOOSE LAKE     CLOUDY    34  32  93 N7        29.56R WCI  28
HINCKLEY       CLOUDY    36  32  87 N12       29.57S
CLOQUET        LGT SNOW  34  30  86 N8        29.56S WCI  27
MCGREGOR       CLOUDY    32  30  93 N7        29.61R WCI  26
$$
MNZ071>073-080-081-089-090-097-098-262200-
   Southwest Minnesota

CITY           SKY/WX    TMP DP  RH WIND       PRES   REMARKS
MONTEVIDEO     CLOUDY    34  32  93 N14G20    29.63F WCI  24
GRANITE FALLS  CLOUDY    37  33  87 NW16G24   29.64F
CANBY          CLOUDY    33  31  93 NW18      29.67F FOG     WCI  22
MARSHALL       CLOUDY    33  30  88 NW20      29.63F WCI  21
REDWOOD FALLS  CLOUDY    38  33  82 N12G18    29.59F
OLIVIA         CLOUDY    36  32  87 NW13      29.60S
PIPESTONE      CLOUDY    36  27  69 NW15G28   29.63S
WINDOM         CLOUDY    37  34  87 NW22G30   29.60R
WORTHINGTON    CLOUDY    36  32  85 NW18G25   29.62S
JACKSON        CLOUDY    36  34  93 NW17G26   29.60R
TRACY          CLOUDY    35  33  94 NW21G26   29.62F WCI  23
SLAYTON        CLOUDY    33  31  93 NW20      29.62F WCI  21
$$
MNZ065>067-074>077-082>085-091>093-262200-
   South Central Minnesota

CITY           SKY/WX    TMP DP  RH WIND       PRES   REMARKS
MANKATO        CLOUDY    39  34  82 NW18      29.56F
NEW ULM        CLOUDY    39  34  81 NW16      29.58S
ST JAMES       CLOUDY    39  36  87 NW18G25   29.59S
FAIRMONT       CLOUDY    40  34  79 NW18G25   29.58S
GLENCOE        CLOUDY    38  35  87 NW9G20    29.58R
FARIBAULT      CLOUDY    39  36  87 NW14      29.53F
OWATONNA       CLOUDY    39  36  87 NW20      29.52F
WASECA         CLOUDY    39  36  87 NW14      29.56S
ALBERT LEA     CLOUDY    39  36  87 NW12G22   29.53S
$$
MNZ078>079-086>088-094>096-262200-
   Southeast Minnesota

CITY           SKY/WX    TMP DP  RH WIND       PRES   REMARKS
ROCHESTER      CLOUDY    39  38  96 NW16      29.50S
RED WING       CLOUDY    43  36  75 NW8G18    29.51S
STANTON        CLOUDY    41  36  82 NW14      29.52F
DODGE CENTER   CLOUDY    37  37 100 NW18      29.51S
WINONA         CLOUDY    43  37  81 NW9       29.50S
AUSTIN         CLOUDY    39  36  87 NW17G23   29.53R
PRESTON        CLOUDY    40  37  87 NW15      29.50F
$$
ABBREVIATIONS USED IN REMARKS
   TC - TEMPERATURES IN CELSIUS
  WCI - WIND CHILL INDEX
   HX - HEAT INDEX
  VSB - VISIBILITY
$$




USA.gov is the U.S. government's official web portal to all federal, state and local government web resources and services.